Regional Weather Roundup
Issued by NWS

Home | Current Version | Previous Version | Graphics & Text | Print | Product List | Glossary On
Versions: 1 2 3 4 5 6 7 8 9 10 11 12 13 14 15 16 17 18 19 20 21 22 23 24 25 26 27 28 29 30 31 32 33 34 35 36 37 38 39 40 41 42 43 44 45 46 47 48
000
ASUS45 KBOU 312107
RWRCO

WEATHER ROUNDUP FOR COLORADO
NATIONAL WEATHER SERVICE DENVER/BOULDER CO
200 PM MST SAT JAN 31 2015

NOTE: "FAIR" INDICATES FEW OR NO CLOUDS BELOW 12000 FEET WITH NO
SIGNIFICANT WEATHER AND/OR OBSTRUCTIONS TO VISIBILITY.

COZ001>005-013-030-031-312200-
...NORTHWEST COLORADO...

CITY           SKY/WX    TMP DP  RH WIND       PRES   REMARKS
CRAIG          CLOUDY    34  27  75 SW8       29.90F WCI  27
HAYDEN         CLOUDY    32  25  74 W7        29.89F WCI  26
MEEKER         CLOUDY    35  30  82 SW6       29.90F WCI  30
MOUNT WERNER   NOT AVBL
STEAMBOAT SPGS CLOUDY    31  28  90 S7        29.88S WCI  24
WALDEN         CLOUDY    32  28  86 N8        29.83F WCI  25
$$

COZ006>008-011-312200-
...WEST CENTRAL VALLEYS...

CITY           SKY/WX    TMP DP  RH WIND       PRES   REMARKS
GRAND JUNCTION CLOUDY    40  37  89 W8        29.91S
MONTROSE       LGT RAIN  37  34  89 SE3       29.92S
EAGLE          CLOUDY    36  36 100 CALM      29.87F FOG
RIFLE          CLOUDY    41  35  79 W10       29.88F
DELTA          CLOUDY    42  38  86 CALM      29.89S
NUCLA          DRIZZLE   37  36  93 W5        29.94F
$$

COZ017>023-064>068-312200-
...SOUTHWEST COLORADO...

CITY           SKY/WX    TMP DP  RH WIND       PRES   REMARKS
DURANGO        CLOUDY    36  33  89 SW8       29.86F
CORTEZ         CLOUDY    40  36  86 MISG      29.89S
PAGOSA SPRINGS CLOUDY    36  34  92 S3        29.86S
TELLURIDE      LGT SNOW  31  31  99 W14       29.90S WCI  21
WOLF CREEK PAS SNOW      23  23 100 SW13      29.90F VSB 1/4 WCI  11
$$

COZ009-010-012-014-032>034-037-058>063-312200-
...CENTRAL COLORADO...

CITY           SKY/WX    TMP DP  RH WIND       PRES   REMARKS
ASPEN          LGT SNOW  33  31  92 N6        29.84F FOG     WCI  28
BUENA VISTA    CLOUDY    34  31  88 E3        29.80S
COPPER MTN     SNOW      27  21  80 W18G24    29.86F VSB 1/4 WCI  13
BERTHOUD PASS  CLOUDY    18  12  79 NW28G35   29.83F WCI  -1
COTTONWOOD PAS LGT SNOW  34  32  93 CALM      29.81F
GUNNISON       CLOUDY    36  28  75 SW13      29.86S
KREMMLING      LGT SNOW  34  30  86 CALM      29.86S
LEADVILLE      LGT SNOW  29  25  85 N8        29.81F FOG     WCI  21
MONARCH PASS   SNOW      23  21  93 W29       29.94F VSB<1/4 WCI   6
SALIDA         CLOUDY    37  35  91 NW3       29.87S
SUNLIGHT       SNOW     N/A N/A N/A CALM        N/A  VSB<1/4
WILKERSON PASS LGT SNOW N/A N/A N/A NW7       29.84F
$$

COZ069>075-312200-
...SAN LUIS VALLEY/SANGRE DE CRISTO MOUNTAINS...

CITY           SKY/WX    TMP DP  RH WIND       PRES   REMARKS
ALAMOSA        LGT SNOW  33  29  85 CALM      29.82F VSB 3/4
LA VETA PASS   FOG       28  27  93 MISG      29.80F VSB 1/2
SAGUACHE       LGT SNOW  32  30  93 CALM      29.83F
$$

COZ035-036-038>040-312200-
...NORTHERN COLORADO FRONT RANGE...

CITY           SKY/WX    TMP DP  RH WIND       PRES   REMARKS
DENVER INTL AP LGT SNOW  35  29  78 NW5       29.81F WCI  31
DMNS CITY PARK   N/A     38  25  59 SE2       29.80F
AURORA         LGT SNOW  33  32  95 NW3       29.82F FOG
FRONT RANGE AP NOT AVBL
ERIE MUNI ARPT CLOUDY    38  28  65 CALM      29.81F
BOULDER MUN AP CLOUDY    37  27  65 CALM      29.80F
CENTENNIAL     FLURRIES  35  26  69 N9        29.81F WCI  28
BROOMFIELD     CLOUDY    37  27  65 VRB3      29.82F
FORT COLLINS   CLOUDY    39  28  65 CALM      29.82F
LONGMONT       CLOUDY    42  27  56 E5        29.82F
$$

COZ041-046-047-076>085-087-088-312200-
...PIKES PEAK/PALMER DIVIDE AND SOUTHERN FOOTHILLS...

CITY           SKY/WX    TMP DP  RH WIND       PRES   REMARKS
COLO. SPRINGS  LGT SNOW  35  33  92 CALM      29.79F FOG
A. F. ACADEMY  LGT SNOW  33  32  96 N6        29.78F FOG     WCI  27
ELLICOTT       LGT SNOW N/A N/A N/A N6        29.78F
FALCON         LGT SNOW  32  31  96 N5        29.79F WCI  27
FORT CARSON    LGT RAIN  35  34  93 N7        29.77F WCI  30
LIMON          LGT SNOW  35  30  82 NW13      29.79F WCI  26
MONUMENT HILL  LGT SNOW  30  28  93 N7        29.78F VSB 3/4 WCI  23
TRINIDAD       PTSUNNY   44  31  60 E7        29.77F
$$

COZ042>045-048>051-090-091-312200-
...NORTHEAST COLORADO...

CITY           SKY/WX    TMP DP  RH WIND       PRES   REMARKS
GREELEY ARPT   CLOUDY    39  27  60 NE5       29.80F
AKRON          CLOUDY    35  32  88 N13       29.79F WCI  26
BURLINGTON     CLOUDY    38  33  82 NW10      29.78F
WRAY           LGT RAIN  36  34  94 N8        29.81F
STERLING       LGT RAIN  36  34  93 NE6       29.81F
HOLYOKE        NOT AVBL
FORT MORGAN    RAIN      37  33  85 N7        29.81F
$$

COZ086-089-092>099-312200-
...SOUTHEAST COLORADO...

CITY           SKY/WX    TMP DP  RH WIND       PRES   REMARKS
PUEBLO         CLOUDY    46  32  58 SE9       29.77F
LA JUNTA       CLOUDY    46  34  62 NE6       29.79F
LAMAR          CLOUDY    43  36  76 N7        29.78F
SPRINGFIELD      N/A     45  37  73 N6        29.77F
$$


USA.gov is the U.S. government's official web portal to all federal, state and local government web resources and services.